Погода в Адамовке

Россия / Оренбургская область     52°04′23″N   54°12′18″E
темп.,
°C
ветер,
м/с
пор.,
м/с
влажн.,
%
обл.,
%
осадки,
мм/ч
давл.,
гПа
погр.,
м
20 апреля, вт
вт2023:00+3в8144894 0.0 1026744
02:00+1в8134673 0.0 1028712
05:000в81451100 0.0 1029603
08:000в813482 0.0 1031654
11:00+3вюв911340 0.0 1031943
14:00+7вюв911280 0.0 10291241
17:00+8вюв810270 0.0 10291318
20:00+6юв5938100 0.0 1030332
21 апреля, ср
ср2123:00+3вюв61348100 0.0 1031392
02:00+1вюв61452100 0.0 1031403
05:000вюв6145498 0.0 1031374
08:00+1юв71451100 0.0 1032587
11:00+6юв91236100 0.0 1030890
14:00+9ююв81131100 0.0 10291109
17:00+10ююв71135100 0.0 10281342
20:00+8ююв51142100 0.0 1028466
22 апреля, чт
чт2223:00+7ююв71249100 0.1 1029793
02:00+7ююв61251100 0.0 1029661
05:00+5ююв61358100 0.0 1030550
08:00+5ююв61265100 0.1 1030675
11:00+2ююв61396100 2.4 1031642
14:00+6юв61267100 0.8 1030752
17:00+6ююв71267100 0.8 1030860
20:00+3юв51193100 2.9 1031660
23 апреля, пт
пт2323:00+4юв61197100 5.3 1030954
02:00+4юв4897100 1.0 1029350
05:00+4в3793100 1.3 1028168
08:00+6вюв5981100 0.0 1027304
11:00+10вюв4459100 0.0 1026454
14:00+13юв5648100 0.0 1025917
17:00+12юв3654100 0.0 1023323
20:00+7юв6892100 1.8 1024950
24 апреля, сб
сб2423:00+6юв4791100 3.5 1023995
02:00+6вюв5693100 0.6 1020976
05:00+6в5794100 1.5 1017584
08:00+6всв5995100 2.8 1015307
11:00+8в71081100 3.5 10131037
14:00+8ссв5766100 1.8 10111019
17:00+7ссз5582100 2.3 1011758
20:00+7сз5987100 0.3 1012650